This is the latest recevied weather packets stored in our database for station/object DK4MDA-13. If no packets are shown the sender has not sent any weather packets the latest 10 day(s).
| Time | Temp. | Humidity | Pressure | Rain* | Wind** | Luminosity | Snow |
|---|---|---|---|---|---|---|---|
| 1777618336 | 12.78° C | 65% | 1030.1 hPa | 0 mm | - | - | - |
| 1777618036 | 12.22° C | 66% | 1030.1 hPa | 0 mm | - | - | - |
| 1777617736 | 12.22° C | 65% | 1030.1 hPa | 0 mm | - | - | - |
| 1777617436 | 11.67° C | 66% | 1030.2 hPa | 0 mm | - | - | - |
| 1777617136 | 11.67° C | 68% | 1030.1 hPa | 0 mm | - | - | - |
| 1777616836 | 11.11° C | 69% | 1030.1 hPa | 0 mm | - | - | - |
| 1777616536 | 11.11° C | 69% | 1030.2 hPa | 0 mm | - | - | - |
| 1777616236 | 10.56° C | 69% | 1030.1 hPa | 0 mm | - | - | - |
| 1777615936 | 10.56° C | 71% | 1030.1 hPa | 0 mm | - | - | - |
| 1777615636 | 10.56° C | 71% | 1030.2 hPa | 0 mm | - | - | - |
| 1777615336 | 10° C | 72% | 1030.2 hPa | 0 mm | - | - | - |
| 1777615036 | 10° C | 72% | 1030.2 hPa | 0 mm | - | - | - |
| 1777614736 | 9.44° C | 74% | 1030.1 hPa | 0 mm | - | - | - |
| 1777614436 | 8.89° C | 76% | 1030.1 hPa | 0 mm | - | - | - |
| 1777614136 | 8.89° C | 77% | 1030.1 hPa | 0 mm | - | - | - |
| 1777613836 | 8.33° C | 79% | 1030.1 hPa | 0 mm | - | - | - |
| 1777613536 | 7.78° C | 79% | 1030 hPa | 0 mm | - | - | - |
| 1777613236 | 7.22° C | 81% | 1030.2 hPa | 0 mm | - | - | - |
| 1777612936 | 6.67° C | 83% | 1030 hPa | 0 mm | - | - | - |
| 1777612636 | 6.11° C | 86% | 1030.1 hPa | 0 mm | - | - | - |
| 1777612336 | 5.56° C | 87% | 1030 hPa | 0 mm | - | - | - |
| 1777612036 | 5° C | 87% | 1030 hPa | 0 mm | - | - | - |
| 1777611736 | 5° C | 87% | 1030 hPa | 0 mm | - | - | - |
| 1777611436 | 5° C | 86% | 1029.9 hPa | 0 mm | - | - | - |
| 1777611136 | 4.44° C | 86% | 1030.1 hPa | 0 mm | - | - | - |
* Rain latest hour (hover to see other rain measurements)
** Current wind speed in m/s (hover to see current wind gust speed)